Zurück zum Katalog

STARLINK-1482

AktivKommunikationVLEO
NORAD 45773·PAYLOAD·🇺🇸 United States

Gestartet Jun 13, 2020 von Cape Canaveral Space Force Station

Loading…

Nächste Überflüge (nächste 24 Stunden)

TLE

AktuellSource: CelesTrak SupGP

Epoche: Sep 15, 2026, 01:51 UTC

1 45773C 20038AV  26258.07756944  .00013628  00000+0  27522-3 0  2582
2 45773  53.1544  20.5468 0001901 323.5293 346.6689 15.45901105    17

Verfolge STARLINK-1482 in Echtzeit mit AllMySat

Download on the App Store